Time,TemperatureF,DewpointF,PressureIn,WindDirection,WindDirectionDegrees,WindSpeedMPH,WindSpeedGustMPH,Humidity,HourlyPrecipIn,Conditions,Clouds,dailyrainin,SoftwareType,DateUTC
2013-03-13 00:00:00,30.2,11.9,29.74,North,353,0.0,0.0,46,0.00,,---,0.00,VWS V13.00,2013-03-13 08:00:00,
2013-03-13 00:05:00,30.2,11.9,29.74,North,357,0.0,0.0,46,0.00,,---,0.00,VWS V13.00,2013-03-13 08:05:00,
2013-03-13 00:10:00,29.8,11.6,29.74,NNE,13,0.0,0.0,46,0.00,,---,0.00,VWS V13.00,2013-03-13 08:10:00,
2013-03-13 00:15:00,30.0,11.8,29.74,NNW,340,0.0,0.0,46,0.00,,---,0.00,VWS V13.00,2013-03-13 08:15:00,
2013-03-13 00:20:00,30.0,11.8,29.74,North,8,0.0,0.0,46,0.00,,---,0.00,VWS V13.00,2013-03-13 08:20:00,
2013-03-13 00:25:00,29.7,11.4,29.74,NE,43,0.0,0.0,46,0.00,,---,0.00,VWS V13.00,2013-03-13 08:25:00,
2013-03-13 00:30:00,29.7,11.4,29.74,North,10,0.0,0.0,46,0.00,,---,0.00,VWS V13.00,2013-03-13 08:30:00,
2013-03-13 00:35:00,29.3,11.6,29.71,NE,51,0.0,0.0,47,0.00,,---,0.00,VWS V13.00,2013-03-13 08:35:00,
2013-03-13 00:40:00,29.3,11.6,29.71,NNE,14,0.0,0.0,47,0.00,,---,0.00,VWS V13.00,2013-03-13 08:40:00,
2013-03-13 00:45:00,29.3,11.6,29.71,NNE,15,0.0,0.0,47,0.00,,---,0.00,VWS V13.00,2013-03-13 08:45:00,
2013-03-13 00:50:00,29.3,11.6,29.71,North,7,0.0,0.0,47,0.00,,---,0.00,VWS V13.00,2013-03-13 08:50:00,
2013-03-13 00:55:00,29.3,11.6,29.71,ENE,68,0.0,0.0,47,0.00,,---,0.00,VWS V13.00,2013-03-13 08:55:00,
2013-03-13 01:00:00,29.3,11.1,29.71,North,5,0.0,0.0,46,0.00,,---,0.00,VWS V13.00,2013-03-13 09:00:00,
2013-03-13 01:05:00,29.5,11.3,29.71,NE,44,0.0,0.0,46,0.00,,---,0.00,VWS V13.00,2013-03-13 09:05:00,
2013-03-13 01:10:00,29.3,11.6,29.71,North,357,0.0,0.0,47,0.00,,---,0.00,VWS V13.00,2013-03-13 09:10:00,
2013-03-13 01:15:00,29.1,10.9,29.71,North,350,0.0,0.0,46,0.00,,---,0.00,VWS V13.00,2013-03-13 09:15:00,
2013-03-13 01:20:00,29.1,10.9,29.71,North,0,0.0,0.0,46,0.00,,---,0.00,VWS V13.00,2013-03-13 09:20:00,
2013-03-13 01:25:00,29.1,10.9,29.71,NNE,12,0.0,0.0,46,0.00,,---,0.00,VWS V13.00,2013-03-13 09:25:00,
2013-03-13 01:30:00,28.9,10.8,29.71,NNE,12,0.0,0.0,46,0.00,,---,0.00,VWS V13.00,2013-03-13 09:30:00,
2013-03-13 01:35:00,28.9,10.8,29.71,NNW,334,0.0,0.0,46,0.00,,---,0.00,VWS V13.00,2013-03-13 09:35:00,
2013-03-13 01:40:00,28.8,10.6,29.71,West,262,0.0,0.0,46,0.00,,---,0.00,VWS V13.00,2013-03-13 09:40:00,
2013-03-13 01:45:00,28.8,10.6,29.71,NNW,337,0.0,0.0,46,0.00,,---,0.00,VWS V13.00,2013-03-13 09:45:00,
2013-03-13 01:50:00,28.8,10.6,29.71,ENE,69,0.0,0.0,46,0.00,,---,0.00,VWS V13.00,2013-03-13 09:50:00,
2013-03-13 01:55:00,28.9,10.3,29.71,NE,36,0.0,0.0,45,0.00,,---,0.00,VWS V13.00,2013-03-13 09:55:00,
2013-03-13 02:00:00,28.9,10.3,29.71,North,11,0.0,0.0,45,0.00,,---,0.00,VWS V13.00,2013-03-13 10:00:00,
2013-03-13 02:05:00,28.8,10.1,29.71,North,7,0.0,0.0,45,0.00,,---,0.00,VWS V13.00,2013-03-13 10:05:00,
2013-03-13 02:10:00,28.6,9.9,29.71,North,357,0.0,0.0,45,0.00,,---,0.00,VWS V13.00,2013-03-13 10:10:00,
2013-03-13 02:15:00,28.6,9.9,29.71,NW,316,0.0,0.0,45,0.00,,---,0.00,VWS V13.00,2013-03-13 10:15:00,
2013-03-13 02:20:00,28.2,10.1,29.71,NW,312,0.0,0.0,46,0.00,,---,0.00,VWS V13.00,2013-03-13 10:20:00,
2013-03-13 02:25:00,28.2,10.1,29.71,North,0,0.0,0.0,46,0.00,,---,0.00,VWS V13.00,2013-03-13 10:25:00,
2013-03-13 02:30:00,28.0,9.9,29.71,NW,314,0.0,0.0,46,0.00,,---,0.00,VWS V13.00,2013-03-13 10:30:00,
2013-03-13 02:35:00,28.0,9.9,29.71,NNW,338,0.0,0.0,46,0.00,,---,0.00,VWS V13.00,2013-03-13 10:35:00,
2013-03-13 02:40:00,28.0,9.9,29.71,NNW,333,0.0,0.0,46,0.00,,---,0.00,VWS V13.00,2013-03-13 10:40:00,
2013-03-13 02:45:00,27.7,10.1,29.71,West,281,0.0,0.0,47,0.00,,---,0.00,VWS V13.00,2013-03-13 10:45:00,
2013-03-13 02:50:00,27.7,10.1,29.71,West,281,0.0,0.0,47,0.00,,---,0.00,VWS V13.00,2013-03-13 10:50:00,
2013-03-13 02:55:00,27.1,9.6,29.71,WNW,283,0.0,0.0,47,0.00,,---,0.00,VWS V13.00,2013-03-13 10:55:00,
2013-03-13 03:00:00,27.1,9.6,29.71,NNW,345,0.0,0.0,47,0.00,,---,0.00,VWS V13.00,2013-03-13 11:00:00,
2013-03-13 03:05:00,27.1,9.6,29.71,NNW,345,0.0,0.0,47,0.00,,---,0.00,VWS V13.00,2013-03-13 11:05:00,
2013-03-13 03:10:00,27.1,9.6,29.68,ESE,112,0.0,0.0,47,0.00,,---,0.00,VWS V13.00,2013-03-13 11:10:00,
2013-03-13 03:15:00,27.0,9.4,29.68,NNW,333,0.0,0.0,47,0.00,,---,0.00,VWS V13.00,2013-03-13 11:15:00,
2013-03-13 03:20:00,26.4,9.4,29.68,NW,305,0.0,0.0,48,0.00,,---,0.00,VWS V13.00,2013-03-13 11:20:00,
2013-03-13 03:25:00,26.2,9.7,29.68,WNW,303,0.0,0.0,49,0.00,,---,0.00,VWS V13.00,2013-03-13 11:25:00,
2013-03-13 03:30:00,26.1,9.5,29.68,WNW,302,0.0,0.0,49,0.00,,---,0.00,VWS V13.00,2013-03-13 11:30:00,
2013-03-13 03:35:00,26.1,9.5,29.68,WNW,302,0.0,0.0,49,0.00,,---,0.00,VWS V13.00,2013-03-13 11:35:00,
2013-03-13 03:40:00,26.1,9.5,29.68,WNW,302,0.0,0.0,49,0.00,,---,0.00,VWS V13.00,2013-03-13 11:40:00,
2013-03-13 03:45:00,26.1,10.0,29.68,SW,234,0.0,0.0,50,0.00,,---,0.00,VWS V13.00,2013-03-13 11:45:00,
2013-03-13 03:50:00,25.7,9.6,29.68,NW,313,0.0,0.0,50,0.00,,---,0.00,VWS V13.00,2013-03-13 11:50:00,
2013-03-13 03:55:00,25.5,9.5,29.68,NW,320,0.0,0.0,50,0.00,,---,0.00,VWS V13.00,2013-03-13 11:55:00,
2013-03-13 04:00:00,25.5,9.5,29.68,NW,320,0.0,0.0,50,0.00,,---,0.00,VWS V13.00,2013-03-13 12:00:00,
2013-03-13 04:05:00,25.3,9.3,29.68,NW,320,0.0,0.0,50,0.00,,---,0.00,VWS V13.00,2013-03-13 12:05:00,
2013-03-13 04:10:00,25.3,9.3,29.68,North,3,0.0,0.0,50,0.00,,---,0.00,VWS V13.00,2013-03-13 12:10:00,
2013-03-13 04:15:00,25.2,9.6,29.68,North,3,0.0,0.0,51,0.00,,---,0.00,VWS V13.00,2013-03-13 12:15:00,
2013-03-13 04:20:00,25.0,9.4,29.68,North,3,0.0,0.0,51,0.00,,---,0.00,VWS V13.00,2013-03-13 12:20:00,
2013-03-13 04:25:00,25.0,9.4,29.68,North,357,0.0,0.0,51,0.00,,---,0.00,VWS V13.00,2013-03-13 12:25:00,
2013-03-13 04:30:00,24.8,9.7,29.68,NE,52,0.0,0.0,52,0.00,,---,0.00,VWS V13.00,2013-03-13 12:30:00,
2013-03-13 04:35:00,25.0,9.9,29.68,NE,52,0.0,0.0,52,0.00,,---,0.00,VWS V13.00,2013-03-13 12:35:00,
2013-03-13 04:40:00,24.8,9.7,29.68,North,8,0.0,0.0,52,0.00,,---,0.00,VWS V13.00,2013-03-13 12:40:00,
2013-03-13 04:45:00,24.8,9.7,29.68,NNE,25,0.0,0.0,52,0.00,,---,0.00,VWS V13.00,2013-03-13 12:45:00,
2013-03-13 04:50:00,24.8,9.7,29.68,NNE,23,0.0,0.0,52,0.00,,---,0.00,VWS V13.00,2013-03-13 12:50:00,
2013-03-13 04:55:00,24.6,9.5,29.68,NNE,23,0.0,0.0,52,0.00,,---,0.00,VWS V13.00,2013-03-13 12:55:00,
2013-03-13 05:00:00,24.8,9.7,29.68,NNE,23,0.0,0.0,52,0.00,,---,0.00,VWS V13.00,2013-03-13 13:00:00,
2013-03-13 05:05:00,25.0,9.9,29.68,NNE,23,0.0,0.0,52,0.00,,---,0.00,VWS V13.00,2013-03-13 13:05:00,
2013-03-13 05:10:00,25.0,9.9,29.68,NNE,23,0.0,0.0,52,0.00,,---,0.00,VWS V13.00,2013-03-13 13:10:00,
2013-03-13 05:15:00,24.8,10.1,29.68,North,357,0.0,0.0,53,0.00,,---,0.00,VWS V13.00,2013-03-13 13:15:00,
2013-03-13 05:20:00,24.6,9.9,29.68,North,4,0.0,0.0,53,0.00,,---,0.00,VWS V13.00,2013-03-13 13:20:00,
2013-03-13 05:25:00,24.6,9.9,29.68,NNE,17,0.0,0.0,53,0.00,,---,0.00,VWS V13.00,2013-03-13 13:25:00,
2013-03-13 05:30:00,24.4,9.8,29.68,North,2,0.0,0.0,53,0.00,,---,0.00,VWS V13.00,2013-03-13 13:30:00,
2013-03-13 05:35:00,24.4,9.8,29.65,North,2,0.0,0.0,53,0.00,,---,0.00,VWS V13.00,2013-03-13 13:35:00,
2013-03-13 05:40:00,24.3,9.6,29.65,North,3,0.0,0.0,53,0.00,,---,0.00,VWS V13.00,2013-03-13 13:40:00,
2013-03-13 05:45:00,24.3,9.6,29.65,NNE,22,0.0,0.0,53,0.00,,---,0.00,VWS V13.00,2013-03-13 13:45:00,
2013-03-13 05:50:00,24.3,9.6,29.65,North,10,0.0,0.0,53,0.00,,---,0.00,VWS V13.00,2013-03-13 13:50:00,
2013-03-13 05:55:00,24.3,9.6,29.65,North,9,0.0,0.0,53,0.00,,---,0.00,VWS V13.00,2013-03-13 13:55:00,
2013-03-13 06:00:00,24.1,9.4,29.65,North,9,0.0,0.0,53,0.00,,---,0.00,VWS V13.00,2013-03-13 14:00:00,
2013-03-13 06:05:00,24.1,9.4,29.65,North,9,0.0,0.0,53,0.00,,---,0.00,VWS V13.00,2013-03-13 14:05:00,
2013-03-13 06:10:00,24.1,9.4,29.65,North,9,0.0,0.0,53,0.00,,---,0.00,VWS V13.00,2013-03-13 14:10:00,
2013-03-13 06:15:00,24.1,9.4,29.65,North,2,0.0,0.0,53,0.00,,---,0.00,VWS V13.00,2013-03-13 14:15:00,
2013-03-13 06:20:00,24.1,9.4,29.65,North,2,0.0,0.0,53,0.00,,---,0.00,VWS V13.00,2013-03-13 14:20:00,
2013-03-13 06:25:00,24.3,9.6,29.65,North,4,0.0,0.0,53,0.00,,---,0.00,VWS V13.00,2013-03-13 14:25:00,
2013-03-13 06:30:00,24.3,9.6,29.65,North,1,0.0,0.0,53,0.00,,---,0.00,VWS V13.00,2013-03-13 14:30:00,
2013-03-13 06:35:00,24.3,9.6,29.65,North,9,0.0,0.0,53,0.00,,---,0.00,VWS V13.00,2013-03-13 14:35:00,
2013-03-13 06:40:00,24.3,9.6,29.65,North,357,0.0,0.0,53,0.00,,---,0.00,VWS V13.00,2013-03-13 14:40:00,
2013-03-13 06:45:00,24.1,9.4,29.65,North,0,0.0,0.0,53,0.00,,---,0.00,VWS V13.00,2013-03-13 14:45:00,
2013-03-13 06:50:00,24.3,10.0,29.65,North,0,0.0,0.0,54,0.00,,---,0.00,VWS V13.00,2013-03-13 14:50:00,
2013-03-13 06:55:00,24.4,10.2,29.65,North,4,0.0,0.0,54,0.00,,---,0.00,VWS V13.00,2013-03-13 14:55:00,
2013-03-13 07:00:00,24.4,10.2,29.65,North,4,0.0,0.0,54,0.00,,---,0.00,VWS V13.00,2013-03-13 15:00:00,
2013-03-13 07:05:00,23.9,9.7,29.65,North,4,0.0,0.0,54,0.00,,---,0.00,VWS V13.00,2013-03-13 15:05:00,
2013-03-13 07:10:00,23.9,9.7,29.65,NNW,339,0.0,0.0,54,0.00,,---,0.00,VWS V13.00,2013-03-13 15:10:00,
2013-03-13 07:15:00,23.9,9.7,29.65,North,353,0.0,0.0,54,0.00,,---,0.00,VWS V13.00,2013-03-13 15:15:00,
2013-03-13 07:20:00,23.7,9.5,29.65,NNW,334,0.0,0.0,54,0.00,,---,0.00,VWS V13.00,2013-03-13 15:20:00,
2013-03-13 07:25:00,23.7,9.5,29.65,NNW,338,0.0,0.0,54,0.00,,---,0.00,VWS V13.00,2013-03-13 15:25:00,
2013-03-13 07:30:00,23.7,9.5,29.65,North,9,0.0,0.0,54,0.00,,---,0.00,VWS V13.00,2013-03-13 15:30:00,
2013-03-13 07:35:00,24.4,10.2,29.65,NNW,336,0.0,0.0,54,0.00,,---,0.00,VWS V13.00,2013-03-13 15:35:00,
2013-03-13 07:40:00,24.4,10.2,29.65,North,0,0.0,0.0,54,0.00,,---,0.00,VWS V13.00,2013-03-13 15:40:00,
2013-03-13 07:45:00,24.1,9.9,29.65,North,0,0.0,0.0,54,0.00,,---,0.00,VWS V13.00,2013-03-13 15:45:00,
2013-03-13 07:50:00,24.1,9.9,29.65,North,357,0.0,0.0,54,0.00,,---,0.00,VWS V13.00,2013-03-13 15:50:00,
2013-03-13 07:55:00,23.9,9.7,29.65,North,357,0.0,0.0,54,0.00,,---,0.00,VWS V13.00,2013-03-13 15:55:00,
2013-03-13 08:00:00,24.3,10.0,29.65,NNE,12,0.0,0.0,54,0.00,,---,0.00,VWS V13.00,2013-03-13 16:00:00,
2013-03-13 08:05:00,24.3,10.0,29.65,North,0,0.0,0.0,54,0.00,,---,0.00,VWS V13.00,2013-03-13 16:05:00,
2013-03-13 08:10:00,24.8,10.5,29.65,North,7,0.0,0.0,54,0.00,,---,0.00,VWS V13.00,2013-03-13 16:10:00,
2013-03-13 08:15:00,24.8,10.5,29.65,North,6,0.0,0.0,54,0.00,,---,0.00,VWS V13.00,2013-03-13 16:15:00,
2013-03-13 08:20:00,24.4,10.2,29.62,North,6,0.0,0.0,54,0.00,,---,0.00,VWS V13.00,2013-03-13 16:20:00,
2013-03-13 08:25:00,24.3,10.0,29.62,North,7,0.0,0.0,54,0.00,,---,0.00,VWS V13.00,2013-03-13 16:25:00,
2013-03-13 08:30:00,24.3,10.0,29.62,North,349,0.0,0.0,54,0.00,,---,0.00,VWS V13.00,2013-03-13 16:30:00,
2013-03-13 08:35:00,24.3,10.0,29.62,North,357,0.0,0.0,54,0.00,,---,0.00,VWS V13.00,2013-03-13 16:35:00,
2013-03-13 08:40:00,23.9,9.7,29.62,North,357,0.0,0.0,54,0.00,,---,0.00,VWS V13.00,2013-03-13 16:40:00,
2013-03-13 08:45:00,23.7,9.9,29.62,North,2,0.0,0.0,55,0.00,,---,0.00,VWS V13.00,2013-03-13 16:45:00,
2013-03-13 08:50:00,23.7,9.9,29.62,North,0,0.0,0.0,55,0.00,,---,0.00,VWS V13.00,2013-03-13 16:50:00,
2013-03-13 08:55:00,23.7,9.9,29.62,North,9,0.0,0.0,55,0.00,,---,0.00,VWS V13.00,2013-03-13 16:55:00,
2013-03-13 09:00:00,23.7,9.9,29.62,NNW,340,0.0,0.0,55,0.00,,---,0.00,VWS V13.00,2013-03-13 17:00:00,
2013-03-13 09:05:00,23.9,10.5,29.62,NNW,340,0.0,0.0,56,0.00,,---,0.00,VWS V13.00,2013-03-13 17:05:00,
2013-03-13 09:10:00,24.1,10.7,29.62,North,357,0.0,0.0,56,0.00,,---,0.00,VWS V13.00,2013-03-13 17:10:00,
2013-03-13 09:15:00,24.4,11.0,29.62,North,9,0.0,0.0,56,0.00,,---,0.00,VWS V13.00,2013-03-13 17:15:00,
2013-03-13 09:20:00,25.5,11.2,29.62,North,9,0.0,0.0,54,0.00,,---,0.00,VWS V13.00,2013-03-13 17:20:00,
2013-03-13 09:25:00,27.0,11.3,29.62,ENE,62,0.0,0.0,51,0.00,,---,0.00,VWS V13.00,2013-03-13 17:25:00,
2013-03-13 09:30:00,27.3,10.7,29.62,ENE,62,0.0,0.0,49,0.00,,---,0.00,VWS V13.00,2013-03-13 17:30:00,
2013-03-13 09:35:00,28.2,10.6,29.62,NNE,15,0.0,0.0,47,0.00,,---,0.00,VWS V13.00,2013-03-13 17:35:00,
2013-03-13 09:40:00,28.6,10.4,29.62,NNE,29,0.0,0.0,46,0.00,,---,0.00,VWS V13.00,2013-03-13 17:40:00,
2013-03-13 09:45:00,29.1,10.4,29.62,ENE,72,0.0,0.0,45,0.00,,---,0.00,VWS V13.00,2013-03-13 17:45:00,
2013-03-13 09:50:00,29.5,11.3,29.62,East,80,0.0,0.0,46,0.00,,---,0.00,VWS V13.00,2013-03-13 17:50:00,
2013-03-13 09:55:00,29.8,11.6,29.62,NNW,333,0.0,0.0,46,0.00,,---,0.00,VWS V13.00,2013-03-13 17:55:00,
2013-03-13 10:00:00,30.2,11.9,29.62,North,0,0.0,0.0,46,0.00,,---,0.00,VWS V13.00,2013-03-13 18:00:00,
2013-03-13 10:05:00,30.6,11.8,29.62,NW,321,0.0,0.0,45,0.00,,---,0.00,VWS V13.00,2013-03-13 18:05:00,
2013-03-13 10:10:00,30.6,11.8,29.62,NW,321,0.0,0.0,45,0.00,,---,0.00,VWS V13.00,2013-03-13 18:10:00,
2013-03-13 10:15:00,31.3,11.9,29.62,NNW,339,0.0,0.0,44,0.00,,---,0.00,VWS V13.00,2013-03-13 18:15:00,
2013-03-13 10:20:00,31.8,12.4,29.62,North,8,0.0,0.0,44,0.00,,---,0.00,VWS V13.00,2013-03-13 18:20:00,
2013-03-13 10:25:00,32.0,12.6,29.62,North,8,0.0,0.0,44,0.00,,---,0.00,VWS V13.00,2013-03-13 18:25:00,
2013-03-13 10:30:00,32.5,13.1,29.62,NNW,329,0.0,0.0,44,0.00,,---,0.00,VWS V13.00,2013-03-13 18:30:00,
2013-03-13 10:35:00,32.5,13.1,29.62,NNW,329,0.0,0.0,44,0.00,,---,0.00,VWS V13.00,2013-03-13 18:35:00,
2013-03-13 10:40:00,32.7,13.2,29.62,NNW,329,0.0,0.0,44,0.00,,---,0.00,VWS V13.00,2013-03-13 18:40:00,
2013-03-13 10:45:00,33.1,13.6,29.62,NW,319,0.0,0.0,44,0.00,,---,0.00,VWS V13.00,2013-03-13 18:45:00,
2013-03-13 10:50:00,33.1,13.6,29.62,NW,319,0.0,0.0,44,0.00,,---,0.00,VWS V13.00,2013-03-13 18:50:00,
2013-03-13 10:55:00,33.1,13.6,29.62,NNE,12,0.0,0.0,44,0.00,,---,0.00,VWS V13.00,2013-03-13 18:55:00,
2013-03-13 11:00:00,32.7,13.2,29.62,NNE,12,0.0,0.0,44,0.00,,---,0.00,VWS V13.00,2013-03-13 19:00:00,
2013-03-13 11:05:00,33.6,14.1,29.62,NNE,12,0.0,0.0,44,0.00,,---,0.00,VWS V13.00,2013-03-13 19:05:00,
2013-03-13 11:10:00,33.4,13.9,29.62,East,84,0.0,0.0,44,0.00,,---,0.00,VWS V13.00,2013-03-13 19:10:00,
2013-03-13 11:15:00,33.4,13.9,29.62,East,84,0.0,0.0,44,0.00,,---,0.00,VWS V13.00,2013-03-13 19:15:00,
2013-03-13 11:20:00,33.4,13.9,29.62,NNW,335,0.0,0.0,44,0.00,,---,0.00,VWS V13.00,2013-03-13 19:20:00,
2013-03-13 11:25:00,33.3,13.7,29.62,NNE,29,2.2,2.2,44,0.00,,---,0.00,VWS V13.00,2013-03-13 19:25:00,
2013-03-13 11:30:00,34.2,14.5,29.62,NNE,29,2.2,2.2,44,0.00,,---,0.00,VWS V13.00,2013-03-13 19:30:00,
2013-03-13 11:35:00,34.3,14.2,29.62,NNE,15,0.0,2.2,43,0.00,,---,0.00,VWS V13.00,2013-03-13 19:35:00,
2013-03-13 11:40:00,34.2,14.0,29.62,NNE,15,0.0,2.2,43,0.00,,---,0.00,VWS V13.00,2013-03-13 19:40:00,
2013-03-13 11:45:00,34.7,14.5,29.62,North,7,0.0,0.0,43,0.00,,---,0.00,VWS V13.00,2013-03-13 19:45:00,
2013-03-13 11:50:00,35.1,14.8,29.59,NNW,328,3.1,3.1,43,0.00,,---,0.00,VWS V13.00,2013-03-13 19:50:00,
2013-03-13 11:55:00,34.9,14.7,29.59,NNW,328,3.1,3.1,43,0.00,,---,0.00,VWS V13.00,2013-03-13 19:55:00,
2013-03-13 12:00:00,35.4,15.7,29.59,NNW,328,3.1,3.1,44,0.00,,---,0.00,VWS V13.00,2013-03-13 20:00:00,
2013-03-13 12:05:00,35.6,14.8,29.59,East,89,0.0,3.1,42,0.00,,---,0.00,VWS V13.00,2013-03-13 20:05:00,
2013-03-13 12:10:00,35.8,14.9,29.59,NW,308,0.0,3.1,42,0.00,,---,0.00,VWS V13.00,2013-03-13 20:10:00,
2013-03-13 12:15:00,35.8,14.9,29.59,NW,311,0.0,3.1,42,0.00,,---,0.00,VWS V13.00,2013-03-13 20:15:00,
2013-03-13 12:20:00,36.0,14.6,29.62,ENE,77,0.0,0.0,41,0.00,,---,0.00,VWS V13.00,2013-03-13 20:20:00,
2013-03-13 12:25:00,36.0,14.6,29.62,ENE,77,0.0,0.0,41,0.00,,---,0.00,VWS V13.00,2013-03-13 20:25:00,
2013-03-13 12:30:00,35.8,14.4,29.62,NNE,20,0.0,0.0,41,0.00,,---,0.00,VWS V13.00,2013-03-13 20:30:00,
2013-03-13 12:35:00,35.6,14.2,29.59,North,1,0.0,0.0,41,0.00,,---,0.00,VWS V13.00,2013-03-13 20:35:00,
2013-03-13 12:40:00,36.1,14.7,29.59,North,2,3.6,3.6,41,0.00,,---,0.00,VWS V13.00,2013-03-13 20:40:00,
2013-03-13 12:45:00,36.5,15.1,29.59,North,2,3.6,3.6,41,0.00,,---,0.00,VWS V13.00,2013-03-13 20:45:00,
2013-03-13 12:50:00,37.4,15.3,29.59,NNE,18,2.2,3.6,40,0.00,,---,0.00,VWS V13.00,2013-03-13 20:50:00,
2013-03-13 12:55:00,36.9,15.4,29.59,ENE,66,0.0,3.6,41,0.00,,---,0.00,VWS V13.00,2013-03-13 20:55:00,
2013-03-13 13:00:00,36.3,14.9,29.59,ENE,66,0.0,3.6,41,0.00,,---,0.00,VWS V13.00,2013-03-13 21:00:00,
2013-03-13 13:05:00,36.3,14.9,29.59,NW,307,0.0,0.0,41,0.00,,---,0.00,VWS V13.00,2013-03-13 21:05:00,
2013-03-13 13:10:00,36.1,14.2,29.59,ENE,67,0.0,0.0,40,0.00,,---,0.00,VWS V13.00,2013-03-13 21:10:00,
2013-03-13 13:15:00,37.2,16.3,29.59,ENE,73,0.0,0.0,42,0.00,,---,0.00,VWS V13.00,2013-03-13 21:15:00,
2013-03-13 13:20:00,37.2,16.3,29.59,North,357,0.0,0.0,42,0.00,,---,0.00,VWS V13.00,2013-03-13 21:20:00,
2013-03-13 13:25:00,36.3,14.3,29.59,North,357,0.0,0.0,40,0.00,,---,0.00,VWS V13.00,2013-03-13 21:25:00,
2013-03-13 13:30:00,37.0,15.5,29.59,North,353,0.0,0.0,41,0.00,,---,0.00,VWS V13.00,2013-03-13 21:30:00,
2013-03-13 13:35:00,37.0,15.5,29.59,North,4,0.0,0.0,41,0.00,,---,0.00,VWS V13.00,2013-03-13 21:35:00,
2013-03-13 13:40:00,37.0,15.5,29.59,ENE,64,0.0,0.0,41,0.00,,---,0.00,VWS V13.00,2013-03-13 21:40:00,
2013-03-13 13:45:00,37.8,16.2,29.59,ENE,64,0.0,0.0,41,0.00,,---,0.00,VWS V13.00,2013-03-13 21:45:00,
2013-03-13 13:50:00,37.8,15.6,29.59,ENE,71,0.0,0.0,40,0.00,,---,0.00,VWS V13.00,2013-03-13 21:50:00,
2013-03-13 13:55:00,37.6,15.5,29.59,East,81,0.0,0.0,40,0.00,,---,0.00,VWS V13.00,2013-03-13 21:55:00,
2013-03-13 14:00:00,37.6,15.5,29.59,East,99,0.0,0.0,40,0.00,,---,0.00,VWS V13.00,2013-03-13 22:00:00,
2013-03-13 14:05:00,37.8,16.8,29.59,SE,130,0.0,0.0,42,0.00,,---,0.00,VWS V13.00,2013-03-13 22:05:00,
2013-03-13 14:10:00,37.0,15.0,29.59,SE,130,0.0,0.0,40,0.00,,---,0.00,VWS V13.00,2013-03-13 22:10:00,
2013-03-13 14:15:00,37.0,15.0,29.59,ENE,73,0.0,0.0,40,0.00,,---,0.00,VWS V13.00,2013-03-13 22:15:00,
2013-03-13 14:20:00,36.9,14.8,29.56,ENE,73,0.0,0.0,40,0.00,,---,0.00,VWS V13.00,2013-03-13 22:20:00,
2013-03-13 14:25:00,36.3,14.3,29.56,ENE,73,0.0,0.0,40,0.00,,---,0.00,VWS V13.00,2013-03-13 22:25:00,
2013-03-13 14:30:00,36.1,14.2,29.56,ESE,110,0.0,7.2,40,0.00,,---,0.00,VWS V13.00,2013-03-13 22:30:00,
2013-03-13 14:35:00,35.8,13.8,29.56,ESE,103,0.0,7.2,40,0.00,,---,0.00,VWS V13.00,2013-03-13 22:35:00,
2013-03-13 14:40:00,34.5,12.7,29.56,ENE,68,0.0,7.2,40,0.00,,---,0.00,VWS V13.00,2013-03-13 22:40:00,
2013-03-13 14:45:00,34.9,13.0,29.56,ENE,68,0.0,0.0,40,0.00,,---,0.00,VWS V13.00,2013-03-13 22:45:00,
2013-03-13 14:50:00,35.6,13.7,29.56,ENE,68,0.0,0.0,40,0.00,,---,0.00,VWS V13.00,2013-03-13 22:50:00,
2013-03-13 14:55:00,35.8,13.8,29.56,ENE,64,0.0,0.0,40,0.00,,---,0.00,VWS V13.00,2013-03-13 22:55:00,
2013-03-13 15:00:00,35.6,13.1,29.56,East,87,0.0,0.0,39,0.00,,---,0.00,VWS V13.00,2013-03-13 23:00:00,
2013-03-13 15:05:00,35.1,13.2,29.56,East,87,0.0,0.0,40,0.00,,---,0.00,VWS V13.00,2013-03-13 23:05:00,
2013-03-13 15:10:00,36.1,13.6,29.56,East,95,0.0,0.0,39,0.00,,---,0.00,VWS V13.00,2013-03-13 23:10:00,
2013-03-13 15:15:00,36.1,13.6,29.56,East,83,3.6,3.6,39,0.00,,---,0.00,VWS V13.00,2013-03-13 23:15:00,
2013-03-13 15:20:00,36.7,14.1,29.56,NNW,342,0.0,3.6,39,0.00,,---,0.00,VWS V13.00,2013-03-13 23:20:00,
2013-03-13 15:25:00,36.7,14.1,29.56,ENE,75,2.2,2.2,39,0.00,,---,0.00,VWS V13.00,2013-03-13 23:25:00,
2013-03-13 15:30:00,36.9,13.0,29.56,ENE,68,0.0,2.2,37,0.00,,---,0.00,VWS V13.00,2013-03-13 23:30:00,
2013-03-13 15:35:00,36.9,13.0,29.56,ENE,58,0.0,6.3,37,0.00,,---,0.00,VWS V13.00,2013-03-13 23:35:00,
2013-03-13 15:40:00,36.3,13.8,29.53,ENE,58,0.0,0.0,39,0.00,,---,0.00,VWS V13.00,2013-03-13 23:40:00,
2013-03-13 15:45:00,36.1,14.2,29.53,NE,52,0.0,0.0,40,0.00,,---,0.00,VWS V13.00,2013-03-13 23:45:00,
2013-03-13 15:50:00,35.6,13.1,29.53,ENE,64,0.0,0.0,39,0.00,,---,0.00,VWS V13.00,2013-03-13 23:50:00,
2013-03-13 15:55:00,35.6,13.1,29.53,ENE,72,0.0,0.0,39,0.00,,---,0.00,VWS V13.00,2013-03-13 23:55:00,
2013-03-13 16:00:00,35.6,13.1,29.53,ESE,109,0.0,0.0,39,0.00,,---,0.00,VWS V13.00,2013-03-14 00:00:00,
2013-03-13 16:05:00,35.8,13.8,29.53,ESE,109,0.0,0.0,40,0.00,,---,0.00,VWS V13.00,2013-03-14 00:05:00,
2013-03-13 16:10:00,36.1,14.2,29.53,ESE,106,0.0,0.0,40,0.00,,---,0.00,VWS V13.00,2013-03-14 00:10:00,
2013-03-13 16:15:00,36.0,13.4,29.53,ENE,72,0.0,0.0,39,0.00,,---,0.00,VWS V13.00,2013-03-14 00:15:00,
2013-03-13 16:20:00,35.6,13.1,29.53,ENE,72,0.0,0.0,39,0.00,,---,0.00,VWS V13.00,2013-03-14 00:20:00,
2013-03-13 16:25:00,35.6,13.1,29.53,ENE,77,0.0,0.0,39,0.00,,---,0.00,VWS V13.00,2013-03-14 00:25:00,
2013-03-13 16:30:00,35.1,13.2,29.53,ENE,71,0.0,0.0,40,0.00,,---,0.00,VWS V13.00,2013-03-14 00:30:00,
2013-03-13 16:35:00,35.1,13.2,29.53,ENE,61,0.0,0.0,40,0.00,,---,0.00,VWS V13.00,2013-03-14 00:35:00,
2013-03-13 16:40:00,34.7,12.9,29.53,ESE,111,0.0,0.0,40,0.00,,---,0.00,VWS V13.00,2013-03-14 00:40:00,
2013-03-13 16:45:00,35.1,13.2,29.53,ESE,111,0.0,0.0,40,0.00,,---,0.00,VWS V13.00,2013-03-14 00:45:00,
2013-03-13 16:50:00,35.1,13.2,29.53,NE,42,0.0,0.0,40,0.00,,---,0.00,VWS V13.00,2013-03-14 00:50:00,
2013-03-13 16:55:00,35.2,13.4,29.53,NNE,18,0.0,0.0,40,0.00,,---,0.00,VWS V13.00,2013-03-14 00:55:00,
2013-03-13 17:00:00,35.2,13.4,29.53,ENE,76,0.0,0.0,40,0.00,,---,0.00,VWS V13.00,2013-03-14 01:00:00,
2013-03-13 17:05:00,34.2,12.9,29.50,ESE,119,0.0,0.0,41,0.00,,---,0.00,VWS V13.00,2013-03-14 01:05:00,
2013-03-13 17:10:00,34.2,12.9,29.50,ENE,57,0.0,0.0,41,0.00,,---,0.00,VWS V13.00,2013-03-14 01:10:00,
2013-03-13 17:15:00,32.7,15.7,29.50,NE,51,0.0,0.0,49,0.00,,---,0.00,VWS V13.00,2013-03-14 01:15:00,
2013-03-13 17:20:00,32.7,15.7,29.50,NNE,17,0.0,0.0,49,0.00,,---,0.00,VWS V13.00,2013-03-14 01:20:00,
2013-03-13 17:25:00,32.7,15.7,29.53,NNE,17,0.0,0.0,49,0.00,,---,0.00,VWS V13.00,2013-03-14 01:25:00,
2013-03-13 17:30:00,32.7,17.9,29.53,NE,34,0.0,0.0,54,0.00,,---,0.00,VWS V13.00,2013-03-14 01:30:00,
2013-03-13 17:35:00,32.7,18.4,29.53,ENE,64,0.0,0.0,55,0.00,,---,0.00,VWS V13.00,2013-03-14 01:35:00,
2013-03-13 17:40:00,31.3,20.2,29.53,ENE,64,0.0,0.0,63,0.00,,---,0.00,VWS V13.00,2013-03-14 01:40:00,
2013-03-13 17:45:00,31.3,20.2,29.53,ENE,65,0.0,0.0,63,0.00,,---,0.00,VWS V13.00,2013-03-14 01:45:00,
2013-03-13 17:50:00,30.2,21.6,29.53,North,0,0.0,0.0,70,0.00,,---,0.00,VWS V13.00,2013-03-14 01:50:00,
2013-03-13 17:55:00,30.2,21.6,29.53,ENE,63,0.0,0.0,70,0.00,,---,0.00,VWS V13.00,2013-03-14 01:55:00,
2013-03-13 18:00:00,29.8,21.9,29.53,ENE,59,0.0,0.0,72,0.00,,---,0.00,VWS V13.00,2013-03-14 02:00:00,
2013-03-13 18:05:00,29.5,21.9,29.53,ENE,59,0.0,0.0,73,0.00,,---,0.00,VWS V13.00,2013-03-14 02:05:00,
2013-03-13 18:10:00,29.3,22.1,29.53,ENE,64,0.0,0.0,74,0.00,,---,0.00,VWS V13.00,2013-03-14 02:10:00,
2013-03-13 18:15:00,29.5,22.2,29.53,ENE,64,0.0,0.0,74,0.00,,---,0.00,VWS V13.00,2013-03-14 02:15:00,
2013-03-13 18:20:00,29.5,22.2,29.53,ENE,68,0.0,0.0,74,0.00,,---,0.00,VWS V13.00,2013-03-14 02:20:00,
2013-03-13 18:25:00,29.7,22.4,29.50,North,357,0.0,0.0,74,0.00,,---,0.00,VWS V13.00,2013-03-14 02:25:00,
2013-03-13 18:30:00,30.0,22.4,29.50,North,357,0.0,0.0,73,0.00,,---,0.00,VWS V13.00,2013-03-14 02:30:00,
2013-03-13 18:35:00,30.2,22.6,29.50,North,0,0.0,0.0,73,0.00,,---,0.00,VWS V13.00,2013-03-14 02:35:00,
2013-03-13 18:40:00,30.4,22.8,29.50,NNW,338,0.0,0.0,73,0.00,,---,0.00,VWS V13.00,2013-03-14 02:40:00,
2013-03-13 18:45:00,30.4,22.8,29.50,NW,315,0.0,0.0,73,0.00,,---,0.00,VWS V13.00,2013-03-14 02:45:00,
2013-03-13 18:50:00,31.5,23.5,29.50,WNW,297,0.0,0.0,72,0.00,,---,0.00,VWS V13.00,2013-03-14 02:50:00,
2013-03-13 18:55:00,31.5,23.5,29.50,WNW,297,0.0,0.0,72,0.00,,---,0.00,VWS V13.00,2013-03-14 02:55:00,
2013-03-13 19:00:00,32.5,24.5,29.50,WNW,297,0.0,0.0,72,0.00,,---,0.00,VWS V13.00,2013-03-14 03:00:00,
2013-03-13 19:05:00,32.5,24.5,29.50,NNW,337,0.0,0.0,72,0.00,,---,0.00,VWS V13.00,2013-03-14 03:05:00,
2013-03-13 19:09:00,32.0,23.3,29.50,NNW,340,0.0,0.0,70,0.00,,---,0.00,VWS V13.00,2013-03-14 03:09:00,
2013-03-13 19:14:00,31.8,23.2,29.50,North,353,0.0,0.0,70,0.00,,---,0.00,VWS V13.00,2013-03-14 03:14:00,
2013-03-13 19:19:00,31.8,23.2,29.50,NW,325,0.0,0.0,70,0.00,,---,0.00,VWS V13.00,2013-03-14 03:19:00,
2013-03-13 19:24:00,32.4,23.7,29.50,NW,325,0.0,0.0,70,0.00,,---,0.00,VWS V13.00,2013-03-14 03:24:00,
2013-03-13 19:29:00,32.4,23.7,29.50,NW,322,0.0,0.0,70,0.00,,---,0.00,VWS V13.00,2013-03-14 03:29:00,
2013-03-13 19:34:00,32.5,23.5,29.50,NW,311,0.0,0.0,69,0.00,,---,0.00,VWS V13.00,2013-03-14 03:34:00,
2013-03-13 19:39:00,32.4,23.3,29.50,NW,318,0.0,0.0,69,0.00,,---,0.00,VWS V13.00,2013-03-14 03:39:00,
2013-03-13 19:44:00,32.4,23.3,29.50,WNW,302,0.0,0.0,69,0.00,,---,0.00,VWS V13.00,2013-03-14 03:44:00,
2013-03-13 19:49:00,32.0,22.6,29.50,NNW,342,0.0,0.0,68,0.00,,---,0.00,VWS V13.00,2013-03-14 03:49:00,
2013-03-13 19:54:00,31.8,22.5,29.50,North,353,0.0,0.0,68,0.00,,---,0.00,VWS V13.00,2013-03-14 03:54:00,
2013-03-13 19:59:00,31.1,21.4,29.50,NNW,346,0.0,0.0,67,0.00,,---,0.00,VWS V13.00,2013-03-14 03:59:00,
2013-03-13 20:00:00,31.1,21.4,29.50,NNW,346,0.0,0.0,67,0.00,,---,0.00,VWS V13.00,2013-03-14 04:00:00,
2013-03-13 20:05:00,31.1,21.4,29.50,North,0,0.0,0.0,67,0.00,,---,0.00,VWS V13.00,2013-03-14 04:05:00,
2013-03-13 20:10:00,30.6,20.9,29.50,North,9,0.0,0.0,67,0.00,,---,0.00,VWS V13.00,2013-03-14 04:10:00,
2013-03-13 20:15:00,30.6,20.9,29.50,NNE,21,0.0,0.0,67,0.00,,---,0.00,VWS V13.00,2013-03-14 04:15:00,
2013-03-13 20:20:00,30.2,20.6,29.47,NNE,21,0.0,0.0,67,0.00,,---,0.00,VWS V13.00,2013-03-14 04:20:00,
2013-03-13 20:25:00,29.5,19.2,29.47,North,3,0.0,0.0,65,0.00,,---,0.00,VWS V13.00,2013-03-14 04:25:00,
2013-03-13 20:30:00,29.5,19.5,29.47,NNW,344,0.0,0.0,66,0.00,,---,0.00,VWS V13.00,2013-03-14 04:30:00,
2013-03-13 20:35:00,29.5,19.5,29.47,North,6,0.0,0.0,66,0.00,,---,0.00,VWS V13.00,2013-03-14 04:35:00,
2013-03-13 20:40:00,29.5,19.5,29.47,North,2,0.0,0.0,66,0.00,,---,0.00,VWS V13.00,2013-03-14 04:40:00,
2013-03-13 20:45:00,29.3,19.7,29.47,North,2,0.0,0.0,67,0.00,,---,0.00,VWS V13.00,2013-03-14 04:45:00,
2013-03-13 20:50:00,29.1,19.9,29.47,North,0,0.0,0.0,68,0.00,,---,0.00,VWS V13.00,2013-03-14 04:50:00,
2013-03-13 20:55:00,29.1,19.5,29.50,NNE,12,0.0,0.0,67,0.00,,---,0.00,VWS V13.00,2013-03-14 04:55:00,
2013-03-13 21:00:00,28.9,19.7,29.50,NNE,12,0.0,0.0,68,0.00,,---,0.00,VWS V13.00,2013-03-14 05:00:00,
2013-03-13 21:05:00,28.9,19.7,29.47,North,353,0.0,0.0,68,0.00,,---,0.00,VWS V13.00,2013-03-14 05:05:00,
2013-03-13 21:10:00,28.6,19.4,29.47,North,8,0.0,0.0,68,0.00,,---,0.00,VWS V13.00,2013-03-14 05:10:00,
2013-03-13 21:15:00,28.6,19.4,29.47,North,357,0.0,0.0,68,0.00,,---,0.00,VWS V13.00,2013-03-14 05:15:00,
2013-03-13 21:20:00,28.4,19.5,29.47,North,0,0.0,0.0,69,0.00,,---,0.00,VWS V13.00,2013-03-14 05:20:00,
2013-03-13 21:25:00,28.4,19.5,29.47,North,0,0.0,0.0,69,0.00,,---,0.00,VWS V13.00,2013-03-14 05:25:00,
2013-03-13 21:30:00,28.4,19.5,29.47,North,357,0.0,0.0,69,0.00,,---,0.00,VWS V13.00,2013-03-14 05:30:00,
2013-03-13 21:35:00,28.2,19.4,29.47,North,0,0.0,0.0,69,0.00,,---,0.00,VWS V13.00,2013-03-14 05:35:00,
2013-03-13 21:40:00,28.2,19.4,29.47,North,6,0.0,0.0,69,0.00,,---,0.00,VWS V13.00,2013-03-14 05:40:00,
2013-03-13 21:45:00,27.9,19.0,29.47,North,9,0.0,0.0,69,0.00,,---,0.00,VWS V13.00,2013-03-14 05:45:00,
2013-03-13 21:50:00,27.9,19.0,29.47,North,6,0.0,0.0,69,0.00,,---,0.00,VWS V13.00,2013-03-14 05:50:00,
2013-03-13 21:55:00,27.7,19.2,29.47,North,7,0.0,0.0,70,0.00,,---,0.00,VWS V13.00,2013-03-14 05:55:00,
2013-03-13 22:00:00,27.7,19.2,29.47,North,357,0.0,0.0,70,0.00,,---,0.00,VWS V13.00,2013-03-14 06:00:00,
2013-03-13 22:05:00,27.7,19.2,29.47,North,357,0.0,0.0,70,0.00,,---,0.00,VWS V13.00,2013-03-14 06:05:00,
2013-03-13 22:10:00,27.5,19.0,29.47,North,350,0.0,0.0,70,0.00,,---,0.00,VWS V13.00,2013-03-14 06:10:00,
2013-03-13 22:15:00,27.5,19.0,29.47,North,3,0.0,0.0,70,0.00,,---,0.00,VWS V13.00,2013-03-14 06:15:00,
2013-03-13 22:20:00,27.1,18.7,29.47,North,3,0.0,0.0,70,0.00,,---,0.00,VWS V13.00,2013-03-14 06:20:00,
2013-03-13 22:25:00,27.1,18.7,29.47,North,357,0.0,0.0,70,0.00,,---,0.00,VWS V13.00,2013-03-14 06:25:00,
2013-03-13 22:30:00,27.1,18.7,29.47,North,9,0.0,0.0,70,0.00,,---,0.00,VWS V13.00,2013-03-14 06:30:00,
2013-03-13 22:35:00,27.0,18.5,29.47,North,9,0.0,0.0,70,0.00,,---,0.00,VWS V13.00,2013-03-14 06:35:00,
2013-03-13 22:40:00,27.0,18.5,29.47,NNE,15,0.0,0.0,70,0.00,,---,0.00,VWS V13.00,2013-03-14 06:40:00,
2013-03-13 22:45:00,26.4,18.6,29.47,NNE,15,0.0,0.0,72,0.00,,---,0.00,VWS V13.00,2013-03-14 06:45:00,
2013-03-13 22:50:00,26.4,18.6,29.47,North,11,0.0,0.0,72,0.00,,---,0.00,VWS V13.00,2013-03-14 06:50:00,
2013-03-13 22:55:00,26.1,18.6,29.47,North,11,0.0,0.0,73,0.00,,---,0.00,VWS V13.00,2013-03-14 06:55:00,
2013-03-13 23:00:00,26.1,18.6,29.47,North,9,0.0,0.0,73,0.00,,---,0.00,VWS V13.00,2013-03-14 07:00:00,
2013-03-13 23:05:00,26.1,18.6,29.47,North,10,0.0,0.0,73,0.00,,---,0.00,VWS V13.00,2013-03-14 07:05:00,
2013-03-13 23:10:00,25.9,18.8,29.47,North,7,0.0,0.0,74,0.00,,---,0.00,VWS V13.00,2013-03-14 07:10:00,
2013-03-13 23:15:00,25.9,18.8,29.47,North,4,0.0,0.0,74,0.00,,---,0.00,VWS V13.00,2013-03-14 07:15:00,
2013-03-13 23:20:00,25.9,18.8,29.47,North,4,0.0,0.0,74,0.00,,---,0.00,VWS V13.00,2013-03-14 07:20:00,
2013-03-13 23:25:00,25.7,18.6,29.47,North,8,0.0,0.0,74,0.00,,---,0.00,VWS V13.00,2013-03-14 07:25:00,
2013-03-13 23:30:00,25.7,18.6,29.47,North,8,0.0,0.0,74,0.00,,---,0.00,VWS V13.00,2013-03-14 07:30:00,
2013-03-13 23:35:00,25.7,18.6,29.47,North,10,0.0,0.0,74,0.00,,---,0.00,VWS V13.00,2013-03-14 07:35:00,
2013-03-13 23:40:00,25.7,18.3,29.47,North,8,0.0,0.0,73,0.00,,---,0.00,VWS V13.00,2013-03-14 07:40:00,
2013-03-13 23:45:00,25.5,17.8,29.47,North,8,0.0,0.0,72,0.00,,---,0.00,VWS V13.00,2013-03-14 07:45:00,
2013-03-13 23:50:00,25.3,17.6,29.47,North,0,0.0,0.0,72,0.00,,---,0.00,VWS V13.00,2013-03-14 07:50:00,
2013-03-13 23:55:00,25.5,18.1,29.47,North,357,0.0,0.0,73,0.00,,---,0.00,VWS V13.00,2013-03-14 07:55:00,
2013-03-13 23:59:00,25.5,18.1,29.47,North,2,0.0,0.0,73,0.00,,---,0.00,VWS V13.00,2013-03-14 07:59:00,